STARLINK-34318, 64222

Orbit data source: Space-Track

STARLINK-34318, 64222 is a payload satellite owned by SpaceX/Seattle (US) in LEO that was launched on Sat, 31 May 2025 UTC via an FALCON 9 launch vehicle from the Air Force Western Test Range (AFWTR). Payload-class satellites include a variety of spacecraft equipped with specific instruments for various scientific and technological missions. These include communications satellites like Starlink; space stations such as the ISS; scientific satellites like the Hubble; Earth observation satellites from companies like Planet Labs, Umbra, and HawkEye 360; GPS; miniature CubeSats for education and research; and military/defense satellites.

Loading next visibility...
Identifier
64222, 2025-117V
Orbit
LEO
Country
Flag of USUS
Related business
Manufacturer
SpaceX/Seattle
Mission
Operational Commercial Communications
Bus & Motor
STARLINK V2MO, Unknown motor
Mass
575 kg wet, ~530 kg dry
Launch date (UTC)
2025-05-31 (1 year ago)
Launch vehicle
FALCON 9
Launch site
Air Force Western Test Range (AFWTR)
Object type
Payload
Rocket body
Debris
Shape & HBR
Box + 2 Pan, 17.7 m
Radar Cross Section
36.964 m², Large (>1 m²)

Expand to show TLE details & history
Last TLE update: 1 day ago

TLE from 1 day ago
0 STARLINK-34318
1 64222U 25117V   26170.64417371  .00025761  00000-0  77074-3 0  9990
2 64222  53.1611 285.4519 0001180  77.3157 282.7977 15.34408986 60140
Epoch: 2026-06-19T15:27Z
TLE epoch observation values (Epoch: 2026-06-19T15:27:36.608Z)
Latitude
-0.00006°
Longitude
145.67913°
Altitude
463.399 km
Speed
7.636 km/s
True Right ascension
19h 01m 48s
True Declination
0° 00' 00"
Sunlit
Object was in full shadow at epoch
Visualization orbit readout
Latitude
Unknown
Longitude
Unknown
Altitude
Unknown
Speed
Unknown
Apparent Right ascension
Unknown
Apparent Declination
Unknown
Sunlit
N/A
Visualization observer readout
Local Sidereal Time
08:42:04
Azimuth
Unknown
Elevation
Unknown
Doppler factor
Unknown
Orbital elements
Apogee altitude
463.74 km
Perigee altitude
462.126 km
Semi-major axis
6,841.07 km
Eccentricity
0.00012
Inclination
53.1611°
RAAN
285.4519°
Arg. of periapsis
77.3157°
True anomaly
282.78451°
Mean anomaly
282.7977°
Eccentric anomaly
282.79111°
Mean motion
3.83581 °/min
Orbital period
93.85 mins
BSTAR
0.00077074
Loading maneuver chart data...
Computing Atmospheric mass density...
Loading historical data...
Loading historical data...
Loading historical data...
Loading historical data...
Loading historical data...
Loading historical data...
Loading historical data...

Documentation

Showing up to 5 results
|